Time,TemperatureF,DewpointF,PressureIn,WindDirection,WindDirectionDegrees,WindSpeedMPH,WindSpeedGustMPH,Humidity,HourlyPrecipIn,Conditions,Clouds,dailyrainin,SoftwareType,DateUTC
2013-03-09 00:03:00,34.0,24.0,-100.00,NE,40,1.0,2.0,66,0.00,,,-99.99,,2013-03-09 05:03:00,
2013-03-09 00:12:00,33.0,23.0,-100.00,East,80,1.0,1.0,67,0.00,,,-99.99,,2013-03-09 05:12:00,
2013-03-09 00:22:00,33.0,23.0,-100.00,East,80,1.0,1.0,67,0.00,,,-99.99,,2013-03-09 05:22:00,
2013-03-09 00:32:00,33.0,24.0,-100.00,WNW,295,4.0,5.0,68,0.00,,,-99.99,,2013-03-09 05:32:00,
2013-03-09 00:43:00,33.0,23.0,-100.00,NNW,340,3.0,5.0,68,0.00,,,-99.99,,2013-03-09 05:43:00,
2013-03-09 00:52:00,33.0,23.0,-100.00,NNW,340,3.0,5.0,68,0.00,,,-99.99,,2013-03-09 05:52:00,
2013-03-09 01:02:00,32.0,23.0,-100.00,South,185,0.0,0.0,69,0.00,,,-99.99,,2013-03-09 06:02:00,
2013-03-09 01:11:00,31.0,23.0,-100.00,South,175,0.0,0.0,71,0.00,,,-99.99,,2013-03-09 06:11:00,
2013-03-09 01:22:00,31.0,23.0,-100.00,South,175,0.0,0.0,71,0.00,,,-99.99,,2013-03-09 06:22:00,
2013-03-09 01:32:00,30.0,23.0,-100.00,West,275,4.0,4.0,73,0.00,,,-99.99,,2013-03-09 06:32:00,
2013-03-09 01:42:00,31.0,23.0,-100.00,NE,35,0.0,0.0,73,0.00,,,-99.99,,2013-03-09 06:42:00,
2013-03-09 01:51:00,31.0,23.0,-100.00,NE,35,0.0,0.0,73,0.00,,,-99.99,,2013-03-09 06:51:00,
2013-03-09 02:01:00,31.0,23.0,-100.00,WSW,245,0.0,1.0,73,0.00,,,-99.99,,2013-03-09 07:01:00,
2013-03-09 02:11:00,32.0,23.0,-100.00,NW,315,5.0,6.0,71,0.00,,,-99.99,,2013-03-09 07:11:00,
2013-03-09 02:21:00,32.0,23.0,-100.00,NW,315,5.0,6.0,71,0.00,,,-99.99,,2013-03-09 07:21:00,
2013-03-09 02:32:00,32.0,23.0,-100.00,NNW,340,2.0,3.0,69,0.00,,,-99.99,,2013-03-09 07:32:00,
2013-03-09 02:42:00,32.0,23.0,-100.00,NNW,340,6.0,8.0,69,0.00,,,-99.99,,2013-03-09 07:42:00,
2013-03-09 02:52:00,32.0,23.0,-100.00,NNW,340,6.0,8.0,69,0.00,,,-99.99,,2013-03-09 07:52:00,
2013-03-09 03:01:00,32.0,23.0,-100.00,NW,315,1.0,3.0,68,0.00,,,-99.99,,2013-03-09 08:01:00,
2013-03-09 03:11:00,32.0,22.0,-100.00,West,280,0.0,2.0,68,0.00,,,-99.99,,2013-03-09 08:11:00,
2013-03-09 03:22:00,32.0,22.0,-100.00,West,280,0.0,2.0,68,0.00,,,-99.99,,2013-03-09 08:22:00,
2013-03-09 03:32:00,30.0,22.0,-100.00,West,275,1.0,1.0,71,0.00,,,-99.99,,2013-03-09 08:32:00,
2013-03-09 03:42:00,29.0,22.0,-100.00,West,270,2.0,3.0,73,0.00,,,-99.99,,2013-03-09 08:42:00,
2013-03-09 03:52:00,29.0,22.0,-100.00,West,270,2.0,3.0,73,0.00,,,-99.99,,2013-03-09 08:52:00,
2013-03-09 04:02:00,29.0,22.0,-100.00,SSW,205,0.0,0.0,74,0.00,,,-99.99,,2013-03-09 09:02:00,
2013-03-09 04:12:00,29.0,22.0,-100.00,WSW,250,1.0,1.0,74,0.00,,,-99.99,,2013-03-09 09:12:00,
2013-03-09 04:21:00,29.0,22.0,-100.00,WSW,250,1.0,1.0,74,0.00,,,-99.99,,2013-03-09 09:21:00,
2013-03-09 04:32:00,29.0,22.0,-100.00,West,260,2.0,3.0,75,0.00,,,-99.99,,2013-03-09 09:32:00,
2013-03-09 04:42:00,29.0,22.0,-100.00,WSW,245,2.0,2.0,75,0.00,,,-99.99,,2013-03-09 09:42:00,
2013-03-09 04:52:00,29.0,22.0,-100.00,WSW,245,2.0,2.0,75,0.00,,,-99.99,,2013-03-09 09:52:00,
2013-03-09 05:01:00,29.0,22.0,-100.00,SW,235,2.0,2.0,76,0.00,,,-99.99,,2013-03-09 10:01:00,
2013-03-09 05:11:00,28.0,22.0,-100.00,West,260,3.0,4.0,77,0.00,,,-99.99,,2013-03-09 10:11:00,
2013-03-09 05:21:00,28.0,22.0,-100.00,West,260,3.0,4.0,77,0.00,,,-99.99,,2013-03-09 10:21:00,
2013-03-09 05:32:00,28.0,22.0,-100.00,WSW,245,1.0,2.0,78,0.00,,,-99.99,,2013-03-09 10:32:00,
2013-03-09 05:42:00,28.0,22.0,-100.00,West,265,1.0,1.0,78,0.00,,,-99.99,,2013-03-09 10:42:00,
2013-03-09 05:52:00,28.0,22.0,-100.00,West,265,1.0,1.0,78,0.00,,,-99.99,,2013-03-09 10:52:00,
2013-03-09 06:01:00,28.0,22.0,-100.00,WSW,240,2.0,4.0,77,0.00,,,-99.99,,2013-03-09 11:01:00,
2013-03-09 06:11:00,28.0,22.0,-100.00,NW,305,1.0,1.0,78,0.00,,,-99.99,,2013-03-09 11:11:00,
2013-03-09 06:21:00,28.0,22.0,-100.00,NW,305,1.0,1.0,78,0.00,,,-99.99,,2013-03-09 11:21:00,
2013-03-09 06:32:00,28.0,22.0,-100.00,WSW,240,0.0,0.0,78,0.00,,,-99.99,,2013-03-09 11:32:00,
2013-03-09 06:42:00,28.0,22.0,-100.00,SW,215,0.0,0.0,78,0.00,,,-99.99,,2013-03-09 11:42:00,
2013-03-09 06:52:00,28.0,22.0,-100.00,SW,215,0.0,0.0,78,0.00,,,-99.99,,2013-03-09 11:52:00,
2013-03-09 07:02:00,28.0,22.0,-100.00,West,265,2.0,3.0,78,0.00,,,-99.99,,2013-03-09 12:02:00,
2013-03-09 07:11:00,29.0,23.0,-100.00,WSW,240,0.0,0.0,76,0.00,,,-99.99,,2013-03-09 12:11:00,
2013-03-09 07:21:00,29.0,23.0,-100.00,WSW,240,0.0,0.0,76,0.00,,,-99.99,,2013-03-09 12:21:00,
2013-03-09 07:32:00,30.0,23.0,-100.00,SSE,150,0.0,1.0,76,0.00,,,-99.99,,2013-03-09 12:32:00,
2013-03-09 07:42:00,31.0,24.0,-100.00,ESE,115,0.0,0.0,75,0.00,,,-99.99,,2013-03-09 12:42:00,
2013-03-09 07:52:00,31.0,24.0,-100.00,ESE,115,0.0,0.0,75,0.00,,,-99.99,,2013-03-09 12:52:00,
2013-03-09 08:02:00,32.0,25.0,-100.00,East,95,0.0,1.0,74,0.00,,,-99.99,,2013-03-09 13:02:00,
2013-03-09 08:11:00,34.0,26.0,-100.00,NE,45,0.0,1.0,71,0.00,,,-99.99,,2013-03-09 13:11:00,
2013-03-09 08:21:00,34.0,26.0,-100.00,NE,45,0.0,1.0,71,0.00,,,-99.99,,2013-03-09 13:21:00,
2013-03-09 08:32:00,34.0,25.0,-100.00,ENE,65,0.0,1.0,70,0.00,,,-99.99,,2013-03-09 13:32:00,
2013-03-09 08:42:00,34.0,25.0,-100.00,ENE,60,1.0,2.0,69,0.00,,,-99.99,,2013-03-09 13:42:00,
2013-03-09 08:52:00,34.0,25.0,-100.00,ENE,60,1.0,2.0,69,0.00,,,-99.99,,2013-03-09 13:52:00,
2013-03-09 09:01:00,37.0,26.0,-100.00,ESE,105,1.0,2.0,66,0.00,,,-99.99,,2013-03-09 14:01:00,
2013-03-09 09:11:00,38.0,27.0,-100.00,ENE,65,2.0,2.0,64,0.00,,,-99.99,,2013-03-09 14:11:00,
2013-03-09 09:21:00,38.0,27.0,-100.00,ENE,65,2.0,2.0,64,0.00,,,-99.99,,2013-03-09 14:21:00,
2013-03-09 09:32:00,39.0,26.0,-100.00,ENE,75,2.0,4.0,59,0.00,,,-99.99,,2013-03-09 14:32:00,
2013-03-09 09:42:00,40.0,25.0,-100.00,SE,125,2.0,2.0,57,0.00,,,-99.99,,2013-03-09 14:42:00,
2013-03-09 09:52:00,40.0,25.0,-100.00,SE,125,2.0,2.0,57,0.00,,,-99.99,,2013-03-09 14:52:00,
2013-03-09 10:02:00,40.0,25.0,-100.00,East,95,4.0,5.0,54,0.00,,,-99.99,,2013-03-09 15:02:00,
2013-03-09 10:12:00,41.0,25.0,-100.00,SE,125,2.0,3.0,52,0.00,,,-99.99,,2013-03-09 15:12:00,
2013-03-09 10:22:00,41.0,25.0,-100.00,SE,125,2.0,3.0,52,0.00,,,-99.99,,2013-03-09 15:22:00,
2013-03-09 10:32:00,43.0,24.0,-100.00,ENE,65,0.0,1.0,47,0.00,,,-99.99,,2013-03-09 15:32:00,
2013-03-09 10:42:00,43.0,23.0,-100.00,SE,130,2.0,3.0,45,0.00,,,-99.99,,2013-03-09 15:42:00,
2013-03-09 10:52:00,43.0,23.0,-100.00,SE,130,2.0,3.0,45,0.00,,,-99.99,,2013-03-09 15:52:00,
2013-03-09 11:01:00,45.0,24.0,-100.00,SE,140,4.0,4.0,44,0.00,,,-99.99,,2013-03-09 16:01:00,
2013-03-09 11:12:00,45.0,23.0,-100.00,East,85,3.0,4.0,42,0.00,,,-99.99,,2013-03-09 16:12:00,
2013-03-09 11:21:00,45.0,23.0,-100.00,East,85,3.0,4.0,42,0.00,,,-99.99,,2013-03-09 16:21:00,
2013-03-09 11:32:00,46.0,22.0,-100.00,SSE,160,4.0,6.0,40,0.00,,,-99.99,,2013-03-09 16:32:00,
2013-03-09 11:42:00,47.0,23.0,-100.00,SE,135,4.0,4.0,38,0.00,,,-99.99,,2013-03-09 16:42:00,
2013-03-09 11:51:00,47.0,23.0,-100.00,SE,135,4.0,4.0,38,0.00,,,-99.99,,2013-03-09 16:51:00,
2013-03-09 12:01:00,48.0,24.0,-100.00,SE,125,1.0,2.0,38,0.00,,,-99.99,,2013-03-09 17:01:00,
2013-03-09 12:11:00,49.0,24.0,-100.00,ESE,105,1.0,2.0,37,0.00,,,-99.99,,2013-03-09 17:11:00,
2013-03-09 12:22:00,49.0,24.0,-100.00,ESE,105,1.0,2.0,37,0.00,,,-99.99,,2013-03-09 17:22:00,
2013-03-09 12:32:00,49.0,23.0,-100.00,ESE,105,4.0,6.0,36,0.00,,,-99.99,,2013-03-09 17:32:00,
2013-03-09 12:42:00,49.0,22.0,-100.00,ESE,115,6.0,7.0,35,0.00,,,-99.99,,2013-03-09 17:42:00,
2013-03-09 12:52:00,49.0,22.0,-100.00,ESE,115,6.0,7.0,35,0.00,,,-99.99,,2013-03-09 17:52:00,
2013-03-09 13:02:00,50.0,23.0,-100.00,ESE,105,2.0,2.0,35,0.00,,,-99.99,,2013-03-09 18:02:00,
2013-03-09 13:11:00,51.0,22.0,-100.00,North,5,0.0,1.0,32,0.00,,,-99.99,,2013-03-09 18:11:00,
2013-03-09 13:21:00,51.0,22.0,-100.00,North,5,0.0,1.0,32,0.00,,,-99.99,,2013-03-09 18:21:00,
2013-03-09 13:32:00,52.0,21.0,-100.00,SSW,205,3.0,4.0,30,0.00,,,-99.99,,2013-03-09 18:32:00,
2013-03-09 13:42:00,53.0,21.0,-100.00,NE,35,3.0,4.0,29,0.00,,,-99.99,,2013-03-09 18:42:00,
2013-03-09 13:52:00,53.0,21.0,-100.00,NE,35,3.0,4.0,29,0.00,,,-99.99,,2013-03-09 18:52:00,
2013-03-09 14:02:00,52.0,21.0,-100.00,SSE,150,4.0,6.0,29,0.00,,,-99.99,,2013-03-09 19:02:00,
2013-03-09 14:11:00,52.0,20.0,-100.00,South,180,1.0,2.0,28,0.00,,,-99.99,,2013-03-09 19:11:00,
2013-03-09 14:22:00,52.0,20.0,-100.00,South,180,1.0,2.0,28,0.00,,,-99.99,,2013-03-09 19:22:00,
2013-03-09 14:32:00,55.0,20.0,-100.00,South,190,1.0,1.0,26,0.00,,,-99.99,,2013-03-09 19:32:00,
2013-03-09 14:42:00,54.0,19.0,-100.00,East,80,2.0,3.0,26,0.00,,,-99.99,,2013-03-09 19:42:00,
2013-03-09 14:52:00,54.0,19.0,-100.00,East,80,2.0,3.0,26,0.00,,,-99.99,,2013-03-09 19:52:00,
2013-03-09 15:02:00,55.0,20.0,-100.00,WSW,245,2.0,3.0,25,0.00,,,-99.99,,2013-03-09 20:02:00,
2013-03-09 15:11:00,54.0,19.0,-100.00,SW,215,1.0,3.0,25,0.00,,,-99.99,,2013-03-09 20:11:00,
2013-03-09 15:22:00,54.0,19.0,-100.00,SW,215,1.0,3.0,25,0.00,,,-99.99,,2013-03-09 20:22:00,
2013-03-09 15:32:00,54.0,18.0,-100.00,WSW,240,1.0,2.0,24,0.00,,,-99.99,,2013-03-09 20:32:00,
2013-03-09 15:42:00,54.0,18.0,-100.00,WSW,240,1.0,2.0,24,0.00,,,-99.99,,2013-03-09 20:42:00,
2013-03-09 15:52:00,54.0,18.0,-100.00,WSW,240,1.0,2.0,24,0.00,,,-99.99,,2013-03-09 20:52:00,
2013-03-09 16:02:00,53.0,17.0,-100.00,SSE,160,3.0,6.0,24,0.00,,,-99.99,,2013-03-09 21:02:00,
2013-03-09 16:12:00,53.0,18.0,-100.00,SE,140,1.0,2.0,25,0.00,,,-99.99,,2013-03-09 21:12:00,
2013-03-09 16:22:00,53.0,18.0,-100.00,SE,140,1.0,2.0,25,0.00,,,-99.99,,2013-03-09 21:22:00,
2013-03-09 16:32:00,54.0,18.0,-100.00,SSW,210,1.0,2.0,25,0.00,,,-99.99,,2013-03-09 21:32:00,
2013-03-09 16:42:00,53.0,17.0,-100.00,South,185,4.0,5.0,24,0.00,,,-99.99,,2013-03-09 21:42:00,
2013-03-09 16:52:00,53.0,17.0,-100.00,South,185,4.0,5.0,24,0.00,,,-99.99,,2013-03-09 21:52:00,
2013-03-09 17:01:00,53.0,16.0,-100.00,NE,50,1.0,1.0,23,0.00,,,-99.99,,2013-03-09 22:01:00,
2013-03-09 17:11:00,53.0,17.0,-100.00,SSE,150,2.0,3.0,24,0.00,,,-99.99,,2013-03-09 22:11:00,
2013-03-09 17:21:00,53.0,17.0,-100.00,SSE,150,2.0,3.0,24,0.00,,,-99.99,,2013-03-09 22:21:00,
2013-03-09 17:32:00,52.0,16.0,-100.00,NE,40,0.0,1.0,24,0.00,,,-99.99,,2013-03-09 22:32:00,
2013-03-09 17:42:00,51.0,18.0,-100.00,West,275,0.0,1.0,27,0.00,,,-99.99,,2013-03-09 22:42:00,
2013-03-09 17:51:00,51.0,18.0,-100.00,West,275,0.0,1.0,27,0.00,,,-99.99,,2013-03-09 22:51:00,
2013-03-09 18:01:00,49.0,17.0,-100.00,SW,235,1.0,2.0,28,0.00,,,-99.99,,2013-03-09 23:01:00,
2013-03-09 18:11:00,49.0,17.0,-100.00,WSW,240,2.0,3.0,28,0.00,,,-99.99,,2013-03-09 23:11:00,
2013-03-09 18:21:00,49.0,17.0,-100.00,WSW,240,2.0,3.0,28,0.00,,,-99.99,,2013-03-09 23:21:00,
2013-03-09 18:32:00,48.0,15.0,-100.00,WSW,245,2.0,2.0,27,0.00,,,-99.99,,2013-03-09 23:32:00,
2013-03-09 18:42:00,47.0,15.0,-100.00,SW,230,1.0,2.0,27,0.00,,,-99.99,,2013-03-09 23:42:00,
2013-03-09 18:52:00,47.0,15.0,-100.00,SW,230,1.0,2.0,27,0.00,,,-99.99,,2013-03-09 23:52:00,
2013-03-09 19:02:00,47.0,14.0,-100.00,WSW,255,2.0,2.0,26,0.00,,,-99.99,,2013-03-10 00:02:00,
2013-03-09 19:11:00,47.0,14.0,-100.00,WSW,250,2.0,2.0,27,0.00,,,-99.99,,2013-03-10 00:11:00,
2013-03-09 19:22:00,47.0,14.0,-100.00,WSW,250,2.0,2.0,27,0.00,,,-99.99,,2013-03-10 00:22:00,
2013-03-09 19:32:00,47.0,13.0,-100.00,WSW,250,1.0,2.0,26,0.00,,,-99.99,,2013-03-10 00:32:00,
2013-03-09 19:42:00,46.0,14.0,-100.00,WSW,245,0.0,0.0,28,0.00,,,-99.99,,2013-03-10 00:42:00,
2013-03-09 19:52:00,46.0,14.0,-100.00,WSW,245,0.0,0.0,28,0.00,,,-99.99,,2013-03-10 00:52:00,
2013-03-09 20:01:00,45.0,15.0,-100.00,West,270,2.0,3.0,29,0.00,,,-99.99,,2013-03-10 01:01:00,
2013-03-09 20:11:00,45.0,15.0,-100.00,West,260,1.0,2.0,30,0.00,,,-99.99,,2013-03-10 01:11:00,
2013-03-09 20:21:00,45.0,15.0,-100.00,West,260,1.0,2.0,30,0.00,,,-99.99,,2013-03-10 01:21:00,
2013-03-09 20:32:00,44.0,15.0,-100.00,West,265,2.0,2.0,30,0.00,,,-99.99,,2013-03-10 01:32:00,
2013-03-09 20:42:00,44.0,15.0,-100.00,WSW,255,0.0,0.0,31,0.00,,,-99.99,,2013-03-10 01:42:00,
2013-03-09 20:52:00,44.0,15.0,-100.00,WSW,255,0.0,0.0,31,0.00,,,-99.99,,2013-03-10 01:52:00,
2013-03-09 21:01:00,44.0,15.0,-100.00,NW,320,0.0,0.0,32,0.00,,,-99.99,,2013-03-10 02:01:00,
2013-03-09 21:11:00,43.0,15.0,-100.00,NW,320,0.0,0.0,32,0.00,,,-99.99,,2013-03-10 02:11:00,
2013-03-09 21:22:00,43.0,15.0,-100.00,NW,320,0.0,0.0,32,0.00,,,-99.99,,2013-03-10 02:22:00,
2013-03-09 21:32:00,43.0,15.0,-100.00,NW,320,0.0,0.0,33,0.00,,,-99.99,,2013-03-10 02:32:00,
2013-03-09 21:42:00,42.0,15.0,-100.00,WSW,245,0.0,0.0,34,0.00,,,-99.99,,2013-03-10 02:42:00,
2013-03-09 21:52:00,42.0,15.0,-100.00,WSW,245,0.0,0.0,34,0.00,,,-99.99,,2013-03-10 02:52:00,
2013-03-09 22:02:00,42.0,16.0,-100.00,NNW,335,1.0,1.0,34,0.00,,,-99.99,,2013-03-10 03:02:00,
2013-03-09 22:12:00,42.0,15.0,-100.00,WNW,285,0.0,1.0,34,0.00,,,-99.99,,2013-03-10 03:12:00,
2013-03-09 22:22:00,42.0,15.0,-100.00,WNW,285,0.0,1.0,34,0.00,,,-99.99,,2013-03-10 03:22:00,
2013-03-09 22:32:00,42.0,15.0,-100.00,WSW,245,0.0,0.0,34,0.00,,,-99.99,,2013-03-10 03:32:00,
2013-03-09 22:42:00,42.0,15.0,-100.00,West,270,0.0,1.0,34,0.00,,,-99.99,,2013-03-10 03:42:00,
2013-03-09 22:52:00,42.0,15.0,-100.00,West,270,0.0,1.0,34,0.00,,,-99.99,,2013-03-10 03:52:00,
2013-03-09 23:01:00,42.0,15.0,-100.00,SSE,150,0.0,0.0,34,0.00,,,-99.99,,2013-03-10 04:01:00,
2013-03-09 23:11:00,41.0,10.0,-100.00,NW,310,1.0,1.0,27,0.00,,,-99.99,,2013-03-10 04:11:00,
2013-03-09 23:21:00,41.0,10.0,-100.00,NW,310,1.0,1.0,27,0.00,,,-99.99,,2013-03-10 04:21:00,
2013-03-09 23:32:00,41.0,-10.0,-100.00,West,265,0.0,0.0,11,0.00,,,-99.99,,2013-03-10 04:32:00,
2013-03-09 23:42:00,41.0,16.0,-100.00,NW,310,0.0,1.0,36,0.00,,,-99.99,,2013-03-10 04:42:00,
2013-03-09 23:52:00,41.0,16.0,-100.00,NW,310,0.0,1.0,36,0.00,,,-99.99,,2013-03-10 04:52:00,